Wind_Speed
17 17 18 18 18 18 18 18 18 18 18 18 18 18 18 18 17 16 16 16 15 15 15 14 14 14 15 15 14 14 14 15 15 17 19 20 20 21 23 24 23 23 22 21 21 21 21 21 20 20 19 19 19 17 15 13 11 9 8 7 6 3 3 2 3 5 5 6 5 2 2 2 3 3 5 7 6 5 4 4 4 3 3 2 2 1 1 2
16 16 17 17 17 17 17 17 17 18 18 18 18 18 18 18 18 18 18 17 17 17 16 16 16 15 15 15 16 15 15 15 15 17 20 21 21 21 22 23 23 23 23 23 23 22 22 21 21 21 21 21 20 18 16 14 12 9 8 8 7 4 3 2 2 4 4 5 5 2 2 4 4 3 6 6 5 4 3 4 4 3 2 1 1 1 1 2
16 16 16 16 16 16 16 16 16 17 17 18 18 18 18 18 18 18 18 18 18 18 18 18 17 17 16 16 16 16 16 15 16 19 21 20 21 21 22 22 22 22 23 23 23 23 22 22 21 21 22 22 21 19 16 14 12 10 9 9 7 6 4 2 3 5 3 3 5 3 1 3 3 3 5 6 6 5 3 3 2 1 1 1 1 1 1 3
15 15 15 16 16 16 16 15 15 16 16 16 17 17 18 18 18 19 19 18 18 19 19 19 19 18 18 18 17 17 17 14 17 22 20 19 21 21 22 23 22 22 22 22 23 23 22 21 21 22 23 22 22 20 17 15 14 11 10 9 8 7 5 4 4 5 3 3 6 5 3 1 2 3 6 6 5 4 3 2 0 1 2 2 2 3 2 3
16 15 15 16 16 16 16 16 15 15 16 16 16 17 17 17 18 18 19 19 19 19 19 19 19 20 19 19 19 18 17 14 19 22 18 19 21 21 21 22 22 23 23 23 23 23 23 21 21 22 23 24 23 21 19 17 15 13 11 11 10 8 6 3 4 5 3 4 7 7 5 3 1 3 5 3 5 4 2 2 1 1 2 2 3 4 3 2
17 17 17 17 17 17 17 17 16 16 16 16 16 16 17 17 17 18 19 19 19 19 19 19 19 20 20 20 20 20 18 16 20 21 17 20 22 21 21 21 22 23 23 24 24 24 23 22 21 20 22 24 24 22 21 19 17 15 14 13 11 9 8 5 5 5 4 5 7 7 7 6 2 3 3 2 4 4 3 3 3 1 1 2 2 2 3 3
20 20 19 19 19 18 18 18 18 18 17 17 17 17 17 17 17 18 18 19 19 19 19 19 19 19 20 21 21 20 19 16 19 23 20 20 21 21 21 21 21 22 24 25 25 24 23 22 21 20 21 23 24 24 23 22 19 17 15 14 12 10 10 8 8 7 4 7 7 5 7 8 5 1 2 3 3 1 3 5 4 2 1 2 2 2 3 3
23 22 22 21 21 21 21 20 20 20 19 19 18 18 18 17 18 18 18 18 19 19 19 19 19 19 19 20 20 21 19 16 21 26 21 20 21 21 21 21 21 22 24 25 25 25 24 22 21 21 20 22 24 25 25 24 21 18 16 16 13 12 11 9 10 9 6 8 6 4 6 9 7 2 1 4 4 1 1 4 4 3 2 2 2 3 4 3
25 24 24 24 23 23 23 22 22 22 21 21 20 20 19 19 19 18 18 18 19 19 19 19 19 19 19 20 20 20 18 18 24 27 22 21 22 21 21 21 22 23 24 24 25 26 25 24 23 22 21 22 25 26 26 24 22 20 18 18 16 15 13 10 9 8 9 10 7 4 6 10 8 5 3 1 3 1 0 4 4 3 3 2 1 3 4 3
27 26 26 26 25 25 25 25 25 24 23 23 22 22 21 21 20 20 20 19 19 19 19 20 19 20 19 19 20 18 17 19 24 25 23 23 23 22 22 21 22 23 23 24 25 25 26 26 25 24 23 23 24 25 26 24 23 22 20 20 19 17 15 13 10 8 9 10 9 7 6 9 9 7 6 2 1 2 3 2 4 3 3 3 1 2 3 3
29 29 28 28 27 27 27 27 27 26 26 25 25 24 24 23 23 22 22 21 21 21 20 20 20 20 20 20 19 17 18 21 23 24 23 24 24 24 23 22 22 23 24 24 25 25 26 27 27 26 25 24 23 24 24 23 24 23 21 19 17 15 13 12 10 9 10 11 11 10 7 7 7 7 7 4 2 2 4 3 3 3 3 4 2 2 2 2
30 30 30 29 29 29 28 28 28 28 28 27 27 26 26 26 25 25 24 24 24 24 23 23 22 22 21 21 20 17 20 21 21 22 22 23 24 25 25 25 24 23 23 24 25 26 26 27 28 27 27 26 25 24 24 24 24 22 20 19 16 13 11 11 10 10 11 11 12 12 9 8 6 7 7 5 4 3 4 6 4 3 3 3 3 2 2 3
31 31 30 30 30 30 30 29 29 28 28 28 28 28 28 28 27 27 27 26 26 26 25 25 25 25 23 23 22 21 21 20 20 22 22 23 24 25 25 26 25 25 24 24 25 26 26 27 27 28 29 28 27 26 26 24 24 22 21 19 16 14 11 10 11 11 11 10 11 11 10 11 9 8 8 7 5 3 5 7 6 4 3 3 3 3 2 3
31 31 31 31 31 30 30 30 30 30 29 29 29 29 29 29 29 28 28 27 27 27 26 26 26 26 26 25 25 24 23 21 21 22 22 24 24 25 25 26 27 27 26 26 25 25 26 27 27 28 28 29 28 28 26 23 23 23 22 20 17 14 10 10 12 12 12 12 12 11 10 12 12 8 8 9 7 4 6 8 8 6 3 3 3 3 2 2
31 31 31 31 31 31 31 31 31 31 31 30 30 30 30 30 30 29 29 28 28 28 27 27 27 27 27 27 28 27 26 25 24 23 23 24 24 25 26 26 27 27 28 28 27 26 27 27 26 26 27 28 30 29 26 24 24 22 20 18 16 14 11 11 13 13 13 14 13 11 11 14 14 9 8 9 9 7 8 9 9 8 5 4 3 3 2 1
31 30 30 30 30 31 31 32 32 32 32 32 31 31 31 31 31 31 30 30 30 29 29 28 28 28 28 28 28 29 29 28 26 26 25 25 25 25 25 26 26 27 28 28 29 28 27 26 26 26 27 29 29 28 28 28 26 22 19 17 16 15 13 13 14 13 13 14 15 13 12 15 15 11 8 10 11 10 10 10 10 9 7 4 3 3 2 1
31 30 30 30 30 30 31 31 32 32 33 33 32 32 32 32 32 32 32 32 32 31 31 30 29 30 29 28 28 29 30 29 29 29 28 27 27 26 26 26 26 27 28 29 30 29 28 28 28 27 28 28 28 29 29 28 24 21 21 20 19 18 16 15 14 14 14 13 15 14 12 14 15 12 10 11 12 11 11 10 10 10 9 6 4 3 2 2
31 30 30 30 31 31 31 32 32 32 33 33 33 33 33 33 33 33 33 34 34 34 33 32 32 32 32 30 30 30 29 29 29 29 29 29 29 28 27 26 27 28 29 30 29 29 30 30 30 29 28 28 27 27 25 22 23 25 25 23 22 21 19 17 13 13 14 12 13 14 12 12 16 15 12 14 13 12 11 10 10 11 10 7 6 4 3 2
32 32 31 31 31 31 32 32 32 33 33 34 34 33 33 34 34 33 34 35 35 35 35 34 34 35 35 32 31 31 31 30 30 29 29 30 31 31 30 29 29 29 29 30 28 29 30 32 32 31 27 24 23 24 21 21 25 27 28 27 25 23 22 18 14 11 9 10 12 13 12 12 16 16 12 13 13 11 11 9 10 12 10 8 8 6 3 3
33 32 32 31 31 32 32 32 33 33 33 34 35 34 34 34 34 34 35 36 36 36 36 36 35 36 37 34 33 35 34 33 32 30 30 31 31 32 32 31 31 30 30 30 29 30 31 32 33 31 26 22 23 24 22 24 27 27 29 30 29 28 25 20 16 13 8 10 17 15 14 15 17 16 13 14 15 14 12 9 10 12 10 10 10 8 4 3
32 32 31 31 31 31 32 33 33 33 33 34 34 35 35 35 34 34 35 36 37 37 37 37 37 37 37 36 36 37 37 36 35 33 32 32 32 32 33 33 33 33 31 31 31 32 33 33 32 29 26 25 25 25 25 26 28 27 28 30 31 30 28 23 17 14 12 12 20 19 16 18 18 17 17 16 16 15 12 10 12 13 12 12 11 9 6 3
32 32 31 31 31 31 31 32 33 33 33 34 34 35 35 35 34 34 34 35 36 37 37 37 37 37 37 37 37 37 37 37 37 35 34 34 34 34 34 34 35 35 34 33 33 34 34 34 30 26 25 27 28 27 27 28 29 28 27 29 31 30 29 26 19 16 16 16 19 20 18 21 21 18 18 17 17 16 12 11 13 14 13 14 12 10 7 3
32 31 31 31 30 30 30 31 31 32 32 32 32 32 33 33 32 32 32 32 33 34 35 36 36 36 36 36 37 37 37 37 38 36 34 36 37 36 35 36 36 37 36 36 35 35 35 33 30 26 27 30 30 30 29 29 30 29 28 28 30 30 29 28 22 19 21 19 17 18 21 25 24 20 18 16 19 21 15 12 14 14 15 15 14 12 8 5
30 30 29 29 29 28 28 29 30 29 30 29 28 28 28 27 26 26 26 27 27 27 30 32 32 32 32 32 33 34 34 35 38 36 33 36 37 37 37 38 38 39 39 38 37 37 36 33 31 29 30 31 31 32 32 32 31 29 29 28 28 28 28 28 24 21 23 21 17 18 22 26 28 28 24 19 21 24 19 17 16 15 17 16 13 12 10 8
27 27 27 26 27 27 26 26 27 26 25 25 23 22 21 19 18 19 20 21 21 20 23 26 26 25 26 26 27 28 29 31 35 34 32 34 36 37 39 39 40 41 41 40 40 39 38 36 34 33 33 34 33 33 33 33 32 30 29 28 27 27 26 28 27 24 27 26 22 21 25 27 29 31 27 20 21 24 21 19 18 18 19 16 13 12 12 11
24 24 24 23 23 25 24 22 22 22 20 19 18 16 15 15 13 15 16 18 17 15 17 20 20 20 21 22 22 24 26 26 30 32 30 32 34 35 37 39 40 42 42 43 42 42 41 38 36 36 36 35 34 34 34 35 35 33 30 28 27 28 27 29 30 28 29 30 28 25 27 28 27 28 26 22 21 24 24 21 19 20 19 15 14 14 13 12
22 22 22 21 20 22 21 18 18 18 16 14 15 14 13 14 13 14 16 19 18 14 14 16 17 17 20 21 21 22 23 22 26 29 27 29 32 31 34 37 39 41 42 44 44 43 42 40 39 39 38 38 37 35 35 36 37 35 31 28 29 30 28 27 30 32 31 32 32 29 29 29 27 28 28 25 22 23 26 24 20 21 20 16 16 15 14 14
20 20 21 20 19 18 18 17 15 15 14 13 14 14 13 14 14 14 15 17 17 13 12 13 14 17 19 20 19 21 22 22 26 27 23 25 29 28 31 35 37 39 41 45 46 45 44 42 40 41 41 40 38 36 35 36 38 36 33 31 30 30 29 27 29 33 33 35 35 34 33 31 27 27 29 30 29 26 27 25 21 22 22 18 18 17 15 15
18 19 20 20 18 16 15 16 15 14 15 14 14 15 14 15 14 14 14 14 13 12 11 11 13 15 16 15 16 19 22 22 26 26 20 23 27 27 27 31 34 37 39 44 46 47 46 45 44 44 44 42 39 38 37 38 39 37 36 34 31 32 33 33 35 36 37 39 38 37 36 32 27 28 31 34 37 36 31 25 23 25 24 20 19 18 16 16
18 18 19 19 17 15 14 16 15 15 15 14 14 14 14 14 13 13 13 12 11 11 12 12 11 11 11 12 13 14 17 18 20 21 19 21 25 25 24 26 30 33 36 41 44 45 47 47 47 48 47 44 41 40 40 40 40 39 39 36 34 35 36 37 39 40 43 44 41 38 38 35 29 26 30 33 37 39 35 27 25 25 22 21 20 18 17 17
18 18 18 17 17 15 15 16 16 15 15 14 14 14 14 14 13 12 11 11 11 12 14 13 9 8 11 13 12 11 13 15 15 18 18 19 21 22 22 23 26 30 32 37 40 42 43 43 45 47 48 47 45 43 42 41 41 41 41 39 37 36 37 40 42 43 47 47 42 39 38 37 33 26 27 26 23 29 32 30 27 23 21 20 19 18 18 19
18 18 17 16 16 15 15 16 16 15 14 14 14 13 14 14 13 13 10 11 15 15 13 9 5 8 11 11 11 11 13 14 14 16 17 17 18 20 20 21 24 27 29 33 36 40 41 40 40 43 45 47 47 45 44 44 43 41 40 41 40 38 38 42 45 45 46 45 41 40 40 41 39 35 31 22 11 13 22 27 28 24 23 22 19 19 20 20
19 18 17 16 16 15 15 15 15 14 14 14 14 13 13 14 14 14 13 14 17 17 15 10 8 9 11 12 14 14 13 13 14 14 14 15 15 15 17 20 24 25 26 29 34 38 40 40 38 38 40 43 45 45 46 46 43 39 38 41 43 42 41 43 46 46 45 42 40 40 43 46 46 43 36 24 16 13 14 21 29 28 25 24 20 20 21 20
19 18 17 17 16 15 15 14 13 13 14 14 14 13 13 14 15 18 18 19 19 18 18 16 11 11 13 15 17 15 14 15 16 16 14 14 14 14 16 20 23 23 23 26 29 32 36 38 36 34 36 37 37 39 43 44 41 39 40 43 46 45 44 44 45 46 44 40 38 39 45 50 48 44 38 28 23 22 21 20 24 28 29 26 22 23 24 22
21 19 18 17 16 15 14 13 12 13 14 13 13 13 13 14 16 19 21 22 21 17 13 11 11 12 14 15 17 17 16 17 19 18 16 13 11 13 18 21 22 22 22 22 22 26 32 35 36 39 40 37 31 30 34 39 40 41 44 45 45 44 43 44 44 42 36 32 33 37 44 47 44 42 38 32 29 28 28 23 20 25 28 28 28 25 21 21
21 20 19 17 15 14 13 13 12 13 13 12 13 12 12 14 17 20 21 21 20 14 9 9 11 11 9 9 15 19 17 18 20 20 18 14 11 16 23 24 23 22 21 19 18 21 24 27 32 39 41 38 33 28 27 34 40 42 43 43 41 40 39 42 44 41 32 26 26 31 37 39 40 40 38 37 36 33 31 29 25 26 26 28 30 24 16 16
20 19 18 17 15 13 13 12 12 12 11 11 12 11 12 14 17 18 19 19 18 15 14 14 15 12 8 5 14 19 17 17 20 20 18 16 17 22 26 25 24 24 23 21 21 21 21 22 26 31 34 36 37 33 27 28 34 36 36 33 33 36 38 41 42 41 37 31 25 26 27 28 32 36 34 36 38 37 35 33 30 31 31 30 30 24 19 18
20 18 17 16 15 13 12 11 12 11 10 12 11 11 13 14 14 13 14 17 17 16 18 20 19 14 13 12 16 18 12 13 17 15 10 11 17 24 27 27 26 23 23 24 24 23 21 23 27 28 32 36 39 39 33 27 28 29 27 25 26 29 33 38 43 44 42 36 28 25 23 20 22 26 28 30 33 36 36 32 32 37 37 33 31 29 28 27
20 17 16 15 13 12 11 10 11 10 10 12 11 11 13 10 8 11 14 17 15 14 19 22 20 15 15 18 21 19 15 18 18 11 9 12 19 24 27 28 25 21 22 25 27 26 25 24 27 29 31 33 35 38 35 27 25 26 27 28 29 28 27 30 36 42 43 41 34 28 26 22 15 14 20 24 26 28 30 30 34 39 37 32 30 31 33 31
21 18 15 13 12 11 10 9 10 10 10 12 11 12 12 8 7 11 15 16 14 14 17 18 18 16 16 21 24 22 21 23 22 14 12 18 23 24 26 28 27 24 23 24 26 28 28 26 25 29 31 31 32 36 36 30 27 31 35 34 32 32 30 28 29 34 38 41 39 31 29 26 12 5 14 20 22 23 24 24 30 35 35 30 28 30 31 27
20 17 13 11 10 9 9 8 9 9 10 11 11 12 11 10 11 11 11 13 13 14 14 16 18 16 16 22 25 23 23 24 22 20 21 24 26 26 27 29 30 29 26 24 25 26 28 29 27 28 33 33 32 37 39 34 31 35 41 41 35 32 32 29 28 28 29 36 39 31 26 23 14 11 14 17 20 23 20 18 20 29 34 32 31 32 32 27
18 15 12 10 9 8 8 7 7 7 8 8 8 10 9 10 12 11 10 13 14 13 16 18 19 17 19 25 24 22 24 24 20 19 23 25 27 29 29 27 29 28 26 26 25 24 27 31 30 30 35 36 33 35 40 38 34 34 39 43 40 35 33 31 27 24 21 26 32 30 25 20 15 14 16 20 22 19 18 19 16 27 36 37 36 36 34 32
14 11 10 8 8 8 7 6 5 5 6 5 5 6 5 8 10 7 8 11 11 12 15 16 14 17 21 21 18 19 23 23 20 20 23 26 27 29 29 26 26 25 23 25 26 26 28 31 33 31 33 37 35 35 40 41 39 38 39 44 45 39 38 38 33 29 24 19 23 28 30 26 19 15 12 13 17 19 21 23 18 27 36 36 37 38 36 35
12 10 10 9 8 6 5 5 6 5 4 3 2 1 0 3 4 2 3 7 8 9 11 9 10 16 17 14 15 18 18 18 20 21 22 25 27 28 28 26 26 25 23 25 27 29 30 32 34 33 32 36 37 37 41 43 44 44 43 46 49 45 43 44 39 34 31 26 21 25 31 31 24 19 16 15 20 25 23 18 16 30 36 32 33 37 37 36
12 12 11 9 7 8 8 8 9 7 6 5 5 5 5 3 3 3 2 2 4 5 5 5 8 12 12 12 15 17 15 17 20 20 20 23 27 28 26 27 29 28 26 27 30 32 34 35 35 35 35 36 38 42 46 47 47 48 46 47 50 48 45 44 42 37 36 37 30 24 29 32 28 25 23 21 23 28 29 26 23 33 43 39 36 39 39 36
12 11 9 8 8 9 10 10 9 8 7 6 6 7 7 7 7 7 6 4 3 3 1 2 5 7 8 10 12 14 15 17 19 19 19 22 25 26 26 28 31 31 29 28 30 34 36 37 38 40 41 39 38 44 50 49 47 48 51 52 51 49 48 47 46 42 41 42 36 28 32 37 33 32 31 27 28 31 33 32 29 32 45 48 44 44 42 37
10 9 8 8 8 8 9 10 9 9 8 6 6 6 7 7 7 8 7 6 6 6 5 4 4 5 5 7 10 11 14 16 17 19 20 22 25 26 26 29 32 33 32 30 31 35 38 40 42 44 46 46 43 44 50 54 52 48 51 56 55 51 51 52 49 46 45 46 42 35 39 45 41 37 38 33 33 36 34 33 33 33 40 44 43 42 42 41
10 8 7 7 7 7 8 9 9 8 7 6 5 6 7 7 8 7 7 7 6 6 6 6 7 7 7 8 10 11 13 15 18 19 21 23 26 27 27 30 33 35 36 34 34 37 40 43 44 45 48 51 52 49 50 55 59 55 50 53 58 55 53 55 54 50 48 49 48 41 40 49 48 41 42 39 35 38 38 35 36 36 36 39 40 39 39 41
10 10 9 7 7 7 7 8 9 8 6 4 4 6 6 7 7 7 7 7 5 5 5 6 6 7 8 9 11 13 14 16 18 20 22 24 26 28 29 30 32 35 37 35 33 35 38 40 40 40 43 48 53 55 54 55 60 63 58 53 55 57 57 58 55 53 52 50 49 42 37 48 53 45 43 45 41 41 42 39 38 38 36 37 38 37 36 37
11 11 10 9 8 7 6 7 7 6 5 4 4 6 6 6 7 7 7 7 6 6 6 6 6 6 8 9 10 12 13 15 18 20 22 24 26 27 28 29 30 31 32 30 28 30 32 34 35 35 37 41 47 51 54 55 58 65 66 58 52 52 55 58 56 53 54 53 52 46 39 45 52 47 45 49 48 46 45 42 40 40 39 38 37 37 37 37
12 12 12 12 10 8 7 6 5 4 3 4 5 6 6 7 7 7 7 8 7 7 7 8 8 8 9 10 11 13 14 16 18 20 22 23 25 26 27 27 26 26 26 27 27 27 29 31 31 30 32 35 39 44 49 54 57 64 67 62 55 50 50 55 58 55 54 57 57 50 43 43 46 48 51 54 52 50 49 45 41 41 42 41 40 40 39 39
13 13 14 15 13 10 7 6 5 5 4 5 7 7 7 8 8 8 8 8 8 8 9 9 10 11 11 12 13 14 15 17 18 19 21 22 24 25 25 24 23 22 23 25 27 27 28 29 27 27 29 29 31 37 45 51 57 61 63 62 60 58 56 55 59 59 56 58 60 53 47 46 45 46 53 58 56 53 53 51 47 44 44 43 42 42 41 39
Wind_Direction
282 280 279 278 277 276 276 275 274 273 272 270 268 266 265 264 262 261 259 258 257 256 254 251 248 246 244 241 235 228 224 222 223 225 225 223 221 221 223 225 224 225 229 230 228 227 226 223 222 225 229 233 236 237 237 241 240 243 245 234 230 230 245 300 331 298 318 352 352 331 299 49 58 57 61 66 83 88 90 99 104 129 152 148 137 90 37 55
284 283 281 279 277 276 275 274 273 272 271 270 269 267 266 264 262 259 257 254 253 253 253 252 250 247 245 244 241 234 226 222 223 226 227 225 223 222 223 225 226 227 229 232 233 232 231 228 226 225 228 232 235 236 236 240 239 239 246 237 235 238 244 297 322 301 321 354 356 299 293 19 29 49 64 70 82 87 92 104 113 126 143 153 134 49 12 30
283 282 281 280 278 277 275 274 272 270 269 268 267 266 265 264 263 261 258 254 251 249 249 249 249 248 246 245 243 240 233 226 227 228 228 227 226 225 224 225 226 227 229 231 234 236 236 233 230 228 229 232 234 236 234 238 240 235 241 240 237 239 238 270 317 314 298 313 337 320 305 11 345 25 72 85 84 79 72 82 104 117 204 201 151 103 27 3
280 279 278 277 277 275 274 273 271 269 268 266 265 264 263 262 261 261 259 257 253 249 247 246 246 247 246 245 244 243 238 232 235 232 227 229 229 227 227 226 225 226 228 231 235 237 238 237 234 231 231 232 234 236 234 235 237 230 230 236 236 235 237 258 289 307 312 293 318 339 357 337 297 50 81 94 87 73 70 80 37 291 246 219 171 134 86 6
276 274 273 273 273 273 272 270 269 267 265 264 263 262 261 259 258 259 259 257 255 252 248 245 244 244 243 244 243 243 239 234 241 238 228 231 231 228 228 228 226 226 227 230 233 236 238 238 237 234 232 232 233 234 234 231 231 228 223 226 229 229 231 252 272 281 299 293 305 322 332 329 275 100 86 101 96 79 80 110 138 260 249 214 185 145 117 56
276 273 270 269 269 269 269 268 266 265 263 262 261 261 260 258 256 255 256 256 256 254 251 247 243 242 241 241 241 242 239 234 243 244 233 233 232 229 229 228 228 226 226 228 231 233 235 236 237 236 233 232 231 232 234 233 229 227 223 220 223 226 226 235 257 264 275 278 292 308 321 335 329 124 102 98 83 74 96 121 145 196 234 184 190 155 125 104
277 274 271 269 268 266 266 265 264 263 262 261 259 259 259 258 257 255 254 254 254 254 252 250 245 243 241 240 239 239 238 233 244 245 235 236 235 231 230 229 229 228 227 228 229 231 233 235 235 235 233 230 230 229 232 233 228 225 224 220 216 223 227 233 248 252 259 257 262 295 318 325 322 97 106 100 84 74 113 115 133 159 201 166 171 155 135 128
277 275 273 271 269 267 265 263 262 261 260 259 257 256 256 256 256 256 255 253 253 253 252 251 249 245 242 241 238 237 234 227 240 244 237 238 239 235 231 229 230 229 228 229 229 231 233 234 235 235 234 230 227 228 229 231 230 225 224 223 216 219 224 230 245 252 260 259 260 293 297 291 297 348 37 103 108 234 119 110 126 135 155 170 162 153 158 166
276 275 273 272 270 268 266 263 261 260 258 257 255 254 253 251 252 253 253 253 253 252 252 252 251 249 245 243 240 238 232 223 235 244 239 238 240 238 234 230 230 231 230 230 230 231 232 233 234 234 234 231 228 228 230 230 232 227 222 222 217 214 218 225 238 249 260 265 267 272 275 280 296 330 328 85 113 256 207 119 125 132 129 149 187 150 173 225
277 276 274 272 271 269 267 265 262 260 258 257 256 254 253 251 250 249 250 250 251 251 251 251 251 251 249 247 244 240 235 226 232 241 240 238 240 239 238 233 232 233 231 230 230 230 231 230 231 231 232 234 232 232 233 232 233 231 226 225 222 215 214 220 229 241 254 262 265 262 269 284 299 311 303 317 74 289 273 147 131 146 126 129 181 147 182 247
279 277 276 274 272 270 268 267 264 262 260 258 257 256 254 253 251 250 250 250 250 250 250 251 251 251 251 250 248 242 238 233 233 238 238 238 240 239 239 237 234 233 233 232 231 231 231 230 231 231 231 233 235 235 236 235 236 236 234 234 234 228 221 221 224 232 242 252 261 261 264 277 289 290 282 285 281 267 273 252 153 162 139 126 145 138 165 227
280 279 278 276 275 273 270 268 266 264 263 260 259 257 257 256 255 254 253 253 252 252 251 251 251 251 251 251 250 243 240 239 238 240 238 236 237 237 238 237 236 235 234 233 232 232 232 231 231 231 231 232 232 232 233 232 234 237 239 240 240 237 230 228 226 230 237 245 256 259 264 267 263 261 258 254 257 248 254 257 226 187 154 128 126 131 158 193
281 279 278 278 276 275 273 271 268 266 265 263 261 260 259 258 258 256 255 254 254 253 253 253 252 251 251 251 250 246 244 243 241 240 240 237 236 236 236 236 236 236 235 235 234 234 234 233 232 231 231 232 233 234 236 234 233 233 235 237 236 232 228 230 231 233 239 243 249 256 265 269 261 252 253 249 251 247 231 241 249 233 172 141 127 131 166 200
280 279 278 278 277 276 274 273 271 269 267 266 264 262 261 260 259 258 257 256 256 255 255 255 255 253 252 251 250 247 245 243 242 241 241 239 237 236 236 235 235 235 236 236 235 235 235 234 233 232 232 233 234 236 240 241 239 237 236 236 236 232 227 230 232 233 239 242 247 252 258 267 263 247 245 250 245 243 243 240 244 249 218 164 142 143 177 219
280 279 278 277 276 275 274 273 271 270 268 267 266 265 264 263 261 260 259 258 258 257 256 257 257 257 255 253 251 249 246 243 242 241 240 241 239 237 236 235 235 236 236 237 236 236 237 236 234 235 234 233 233 235 237 239 239 240 241 243 242 236 229 233 235 234 240 245 248 251 253 260 259 243 226 235 237 239 251 246 238 243 238 196 170 165 174 207
280 279 277 276 275 274 274 273 272 271 269 268 267 266 266 265 264 262 261 260 259 258 258 258 258 258 257 255 253 251 248 245 242 242 241 241 241 239 238 237 236 237 237 237 237 236 237 238 236 235 234 233 234 233 233 234 235 237 240 243 245 240 232 234 239 239 242 250 253 247 250 259 260 249 226 228 238 241 243 244 242 243 242 224 198 183 171 158
281 279 278 277 275 274 274 273 272 271 270 269 267 267 266 265 264 264 263 262 261 260 259 259 259 259 258 255 254 252 250 247 243 242 241 241 241 241 240 238 236 236 237 237 236 236 237 238 237 234 234 234 234 233 232 234 236 236 235 235 238 239 233 231 239 247 247 252 257 248 244 256 258 251 237 236 241 243 245 244 243 245 240 234 228 203 162 151
283 281 280 279 277 276 275 274 273 273 272 270 268 267 266 265 264 264 264 263 262 261 260 260 259 258 256 254 253 253 251 249 245 243 242 241 240 240 239 239 238 236 236 237 236 236 236 237 237 235 233 233 235 237 236 234 234 232 230 228 229 233 234 230 232 247 252 250 256 256 251 251 253 246 234 238 240 240 249 241 232 242 240 234 241 224 170 148
285 283 281 280 279 278 277 275 274 273 273 272 270 268 267 266 264 263 263 262 262 261 260 259 258 257 256 254 253 252 250 249 247 244 243 242 240 239 238 238 239 237 237 237 237 237 237 237 237 237 236 235 239 241 237 232 231 230 229 226 223 224 226 228 226 230 242 252 258 265 266 256 248 243 235 240 244 242 247 240 226 238 241 235 246 239 189 159
287 285 282 280 279 278 277 275 274 273 272 271 270 269 267 265 264 262 262 262 261 260 260 259 258 258 258 256 252 251 250 249 248 245 244 243 242 240 239 238 238 238 237 237 237 237 238 237 237 238 237 235 236 237 232 228 230 230 228 227 224 221 218 216 217 213 201 241 264 278 283 264 242 236 239 244 247 244 242 238 224 230 238 235 243 244 214 172
291 288 285 283 280 279 277 275 273 272 270 270 269 268 267 265 264 262 261 262 261 260 260 258 257 256 257 256 252 250 249 249 248 246 244 243 243 241 240 238 238 238 237 236 235 236 237 237 236 237 236 233 232 232 230 227 229 230 229 228 227 226 222 211 202 194 180 215 253 269 277 268 249 237 242 246 247 244 242 244 227 219 226 229 234 243 232 192
294 291 289 286 283 282 280 277 275 272 270 269 268 266 266 265 263 262 261 260 260 259 259 257 256 255 254 252 250 248 247 247 247 245 244 242 241 240 240 240 238 237 237 235 235 235 236 237 236 235 234 233 230 230 230 228 228 229 229 229 228 227 225 219 206 183 175 196 232 255 272 275 266 245 240 247 249 244 240 245 232 217 224 226 229 240 233 212
295 293 291 289 286 285 283 280 277 275 273 270 268 265 264 263 262 260 259 258 257 256 256 255 254 252 250 248 247 247 246 245 245 243 243 242 240 239 239 239 239 238 237 236 236 236 236 237 236 234 232 233 231 228 229 229 228 228 228 228 229 229 223 222 215 188 182 191 211 248 272 276 271 255 244 246 248 245 232 226 225 220 228 227 228 236 225 209
295 294 293 291 289 286 285 281 279 278 276 273 270 266 262 259 258 256 254 254 253 251 250 250 250 248 246 245 245 246 245 245 244 241 240 240 240 239 237 236 238 238 237 236 236 237 237 235 233 231 230 231 230 228 228 229 229 228 229 228 229 232 226 222 216 194 190 191 195 229 251 259 263 263 258 249 246 246 233 220 222 228 234 230 227 230 221 211
296 294 292 292 289 287 286 283 281 279 276 273 268 263 256 250 250 250 248 248 248 247 247 245 245 245 244 244 245 245 246 247 246 242 239 240 240 239 236 235 234 235 236 236 235 235 236 234 231 229 229 230 229 228 228 229 230 228 228 228 229 232 229 222 213 197 194 192 190 213 235 248 259 263 263 256 249 248 241 230 226 231 235 229 225 229 228 222
295 294 292 292 291 289 288 287 283 279 275 270 261 252 249 248 250 253 252 251 248 247 249 247 247 248 247 247 248 248 249 251 250 247 243 242 240 240 238 236 233 233 234 234 234 234 234 233 231 229 229 229 229 227 227 228 229 228 226 225 226 228 228 224 217 206 200 192 187 203 226 241 253 261 265 261 251 244 241 235 228 231 233 223 220 227 231 226
296 295 294 293 293 292 290 288 284 279 275 267 256 248 250 255 260 260 259 259 253 248 250 251 250 249 248 250 251 251 251 252 252 251 250 248 244 243 241 238 235 233 232 232 233 233 233 232 231 230 229 228 228 227 226 228 229 227 225 222 222 224 225 225 225 222 212 195 187 194 211 223 236 254 264 262 252 238 233 231 228 230 227 220 222 223 227 226
299 299 298 296 294 290 288 286 283 279 274 267 262 260 262 264 267 265 263 262 258 251 246 246 247 247 249 253 256 256 254 255 253 251 253 254 250 247 244 241 238 235 233 231 231 230 230 230 230 230 230 228 228 227 226 227 229 227 224 223 223 223 223 220 221 226 219 206 198 194 201 213 225 242 254 258 255 243 231 226 224 228 225 222 224 221 225 228
304 304 303 301 295 288 282 280 281 282 278 274 271 271 272 271 271 267 263 262 260 258 251 244 247 252 255 256 258 260 259 259 258 255 255 255 253 252 249 244 241 238 235 233 231 229 228 227 225 227 229 227 227 228 226 226 228 227 224 223 222 222 222 217 213 214 214 215 211 199 196 205 215 229 241 250 255 250 241 230 220 221 225 226 225 223 227 229
308 309 306 302 295 286 278 277 281 284 283 282 279 278 276 271 269 266 260 255 256 260 255 248 249 255 262 260 255 260 263 262 263 260 256 253 254 255 254 250 244 240 238 234 232 231 230 229 228 226 226 225 225 227 227 226 227 226 224 223 223 223 224 222 217 211 211 216 216 204 198 198 202 220 236 244 251 250 246 239 224 218 222 225 222 225 233 233
312 311 308 303 295 286 280 280 284 286 287 286 283 279 273 266 263 259 253 246 245 247 249 252 250 237 247 256 257 258 260 263 263 260 257 254 254 256 256 254 247 240 238 236 233 231 231 232 233 231 229 225 222 223 226 227 226 226 224 221 221 224 228 231 226 219 216 217 214 208 205 204 200 208 226 236 250 256 250 242 233 223 216 217 219 224 233 236
314 314 313 307 297 290 285 283 285 288 291 290 286 280 271 262 251 242 235 234 238 238 239 238 221 225 239 251 260 263 259 260 260 261 262 257 256 256 252 250 247 241 238 236 233 230 227 227 230 234 235 230 224 222 223 225 225 226 227 225 220 220 226 233 234 229 225 223 219 212 210 212 212 214 219 218 225 261 263 252 245 232 213 212 221 225 228 229
318 318 317 311 301 293 288 284 286 290 296 295 289 281 269 255 239 228 223 229 235 235 233 221 206 231 249 252 257 267 270 268 264 262 261 255 252 247 238 242 246 243 240 237 235 233 227 222 223 229 234 235 230 225 224 225 224 221 224 226 221 217 220 229 235 236 231 228 225 219 217 221 225 228 227 221 214 224 244 253 254 246 229 223 225 227 226 223
321 318 316 312 304 295 290 289 290 294 299 295 287 279 266 248 230 222 227 238 237 231 233 236 234 237 246 253 260 267 270 265 259 256 253 250 244 229 228 245 253 250 248 245 242 240 232 222 216 218 226 230 230 229 227 226 224 220 220 224 222 218 219 225 234 239 239 235 230 225 226 229 233 235 233 230 234 233 224 232 252 255 246 240 233 228 229 227
321 317 314 311 304 297 292 293 297 299 298 290 279 272 260 243 229 222 227 240 243 237 236 245 250 242 239 247 256 260 262 260 258 253 243 241 245 238 240 251 257 255 253 251 247 245 240 229 218 214 217 220 222 227 228 226 224 222 222 225 225 222 223 227 233 239 244 243 237 232 233 235 238 240 236 229 230 235 231 228 242 253 250 247 243 235 232 234
322 318 313 310 306 302 298 299 302 299 293 284 274 266 252 242 237 230 228 239 244 238 238 246 249 243 235 245 253 252 254 255 258 258 245 226 220 241 249 251 253 253 251 249 246 243 240 233 228 223 217 211 208 211 223 228 226 224 226 228 229 226 226 230 233 236 237 236 233 234 237 239 239 239 238 231 224 225 234 238 241 244 243 244 247 239 224 226
325 321 315 309 305 301 299 302 300 295 289 279 269 257 249 249 250 241 234 244 247 233 232 245 247 234 190 196 251 257 258 254 252 258 252 226 216 238 254 256 254 252 250 249 247 244 236 221 222 227 219 208 202 199 208 225 225 224 228 229 230 228 226 227 229 230 232 232 229 231 236 243 245 242 239 238 233 226 232 240 239 237 236 239 245 241 228 228
325 324 318 311 305 299 298 300 297 295 288 277 267 252 252 256 259 253 238 242 244 230 231 242 247 231 185 190 241 257 255 238 236 241 234 216 222 239 252 256 255 254 251 251 249 247 243 222 209 213 217 213 209 203 202 214 219 214 215 217 220 227 231 230 229 228 228 228 227 228 231 236 246 249 244 243 242 234 232 233 228 231 236 240 246 248 243 242
323 322 318 311 305 298 298 300 298 298 285 275 270 254 256 261 254 242 231 234 232 220 225 237 246 232 199 210 236 243 229 222 230 227 192 212 234 239 247 254 255 249 243 244 245 244 244 233 210 204 210 211 210 204 197 203 211 201 195 203 206 211 222 228 232 233 230 229 227 224 226 228 235 260 264 263 260 249 239 230 222 228 238 241 246 250 249 244
325 324 321 313 306 300 303 307 303 299 282 275 271 256 256 260 244 233 230 234 232 222 226 238 249 241 219 224 233 237 239 238 240 236 215 233 248 247 249 255 255 251 242 236 237 238 242 242 222 205 207 209 204 198 190 190 201 195 188 195 202 204 209 216 224 230 231 231 230 224 226 229 218 246 277 284 283 269 252 236 225 228 235 236 236 241 245 241
329 330 332 324 316 314 315 315 307 297 281 274 271 262 258 254 249 242 234 236 234 232 232 233 241 243 233 236 238 242 254 256 252 249 242 247 255 253 250 251 250 253 253 246 242 240 240 244 233 211 206 209 202 195 190 189 199 200 191 190 196 201 204 209 217 222 225 229 229 222 221 223 206 199 229 249 267 273 271 261 235 222 226 232 232 236 240 239
335 340 346 333 322 325 324 320 312 296 285 280 272 266 263 256 252 244 232 235 232 229 232 232 235 234 231 240 244 242 249 256 255 251 248 251 256 256 256 254 252 254 257 257 256 250 243 243 240 222 209 208 203 195 192 193 198 203 196 192 194 194 195 204 210 208 215 230 229 218 207 202 190 189 211 230 247 261 269 269 240 211 218 228 230 234 239 240
342 350 359 343 328 330 329 332 331 312 303 299 281 270 262 257 259 250 233 240 236 229 237 241 240 237 237 247 257 248 246 251 249 241 244 251 256 259 262 265 264 263 263 261 256 250 247 244 242 235 221 212 207 197 193 194 198 201 197 195 196 194 194 202 200 188 190 217 233 221 202 187 174 173 188 218 237 247 256 264 242 207 218 234 234 234 237 235
350 6 13 358 347 351 358 12 12 358 358 355 329 337 258 244 262 265 232 237 234 232 244 246 235 239 242 246 252 249 245 246 247 242 243 251 257 261 266 269 269 268 265 263 258 252 250 248 244 241 232 220 212 204 199 197 199 202 200 195 197 199 200 201 195 184 180 189 212 220 203 188 178 171 163 175 213 231 234 240 219 193 205 227 233 233 234 227
360 8 10 4 14 29 28 28 28 23 30 47 60 68 71 73 76 85 120 215 229 238 249 239 230 241 244 235 239 247 243 238 245 248 247 250 259 267 272 274 273 272 269 266 264 260 255 253 249 243 237 227 215 211 209 204 199 200 201 198 197 200 203 198 190 187 185 182 190 202 194 187 183 180 173 170 196 214 206 204 204 189 193 207 217 224 230 228
4 359 2 10 27 36 30 24 24 21 22 39 55 61 61 60 63 67 65 51 22 4 347 241 239 251 253 247 251 258 255 251 255 262 263 261 265 273 277 277 276 276 273 268 266 264 261 257 253 247 241 232 220 215 216 216 209 199 199 202 199 198 202 197 188 191 191 182 182 185 180 182 185 187 184 174 181 197 199 202 209 196 192 201 210 216 222 227
4 354 3 12 13 26 29 21 17 13 9 21 43 50 52 50 48 48 45 35 21 17 13 346 318 308 291 276 273 272 271 274 274 275 276 274 274 277 277 275 276 274 272 270 266 266 265 262 259 254 246 236 226 219 217 221 223 211 200 203 204 200 200 196 190 193 194 182 177 178 181 186 189 192 192 187 186 192 191 195 203 197 192 199 208 211 211 214
4 358 2 1 357 13 25 18 12 8 0 9 38 51 49 44 39 35 34 30 17 8 359 342 332 326 316 304 295 289 285 286 283 280 280 279 278 279 275 274 276 273 270 270 270 269 268 266 265 263 254 241 231 225 218 219 224 222 211 205 206 205 200 196 193 194 193 183 176 177 185 190 193 196 198 200 201 197 190 193 201 199 197 203 210 212 210 208
3 360 357 351 345 357 14 14 5 356 350 4 37 49 45 40 37 30 25 27 20 5 353 340 328 316 310 302 295 291 287 283 281 278 277 276 276 278 277 276 276 274 273 274 273 272 269 269 269 266 258 245 234 228 222 218 220 222 220 213 207 207 204 198 195 196 194 186 178 181 190 193 194 198 200 203 208 204 198 200 205 202 200 205 210 214 216 211
5 2 358 353 341 336 351 6 1 347 347 6 25 31 29 30 35 27 17 17 14 5 354 341 329 315 307 300 291 287 284 281 280 277 275 275 276 276 276 276 275 276 278 278 276 273 271 273 273 267 258 247 237 231 225 220 218 219 220 217 209 208 207 200 197 198 196 189 185 190 198 198 198 199 198 203 208 208 204 204 207 206 204 206 211 214 217 215
6 4 0 358 348 328 323 343 2 359 351 356 2 9 15 19 21 15 9 8 4 359 352 341 331 322 314 306 297 292 289 285 282 280 278 277 277 276 275 275 274 274 276 279 280 280 279 279 275 267 256 246 239 235 227 220 218 216 216 215 212 214 215 205 199 200 198 191 189 195 203 205 205 203 199 201 206 207 207 206 206 206 206 209 211 210 213 216
4 4 3 0 355 341 320 320 344 353 349 350 352 356 3 8 5 1 1 1 357 354 350 342 332 325 318 310 303 298 294 290 285 282 281 279 277 275 274 273 272 271 274 280 282 281 280 280 275 265 257 247 240 238 230 221 218 214 212 212 213 218 223 214 201 198 198 193 191 197 207 211 211 207 202 201 202 203 204 205 206 207 206 207 208 206 208 213
Height
5869 5869 5868 5868 5868 5868 5868 5868 5868 5868 5868 5868 5868 5868 5868 5868 5868 5869 5869 5870 5870 5870 5870 5871 5871 5872 5872 5872 5873 5874 5875 5876 5877 5878 5878 5878 5879 5881 5881 5882 5883 5884 5885 5886 5887 5888 5888 5889 5890 5891 5892 5892 5893 5894 5896 5897 5899 5900 5901 5902 5903 5903 5902 5902 5903 5901 5901 5902 5903 5904 5904 5903 5903 5903 5901 5902 5904 5905 5906 5906 5907 5907 5907 5908 5908 5908 5909 5910
5867 5866 5866 5866 5866 5865 5865 5865 5865 5865 5865 5865 5865 5865 5866 5866 5866 5866 5867 5867 5868 5868 5868 5869 5869 5870 5870 5871 5871 5872 5874 5875 5875 5875 5875 5876 5878 5879 5880 5881 5882 5883 5884 5885 5886 5886 5887 5888 5890 5890 5891 5891 5892 5893 5895 5896 5898 5900 5901 5901 5902 5903 5902 5902 5902 5902 5902 5902 5902 5902 5903 5904 5905 5904 5901 5903 5905 5905 5906 5906 5907 5907 5907 5908 5908 5909 5910 5910
5864 5864 5864 5863 5863 5863 5863 5863 5863 5863 5863 5863 5863 5863 5863 5863 5863 5864 5864 5865 5865 5866 5866 5867 5867 5868 5869 5869 5870 5871 5872 5873 5873 5872 5873 5875 5876 5877 5878 5879 5881 5882 5883 5883 5884 5885 5886 5888 5889 5890 5890 5891 5891 5893 5894 5896 5897 5899 5900 5900 5902 5902 5902 5902 5902 5902 5903 5903 5902 5902 5904 5906 5906 5904 5903 5904 5905 5905 5907 5907 5907 5908 5908 5908 5908 5909 5910 5911
5862 5862 5861 5861 5861 5861 5860 5860 5860 5860 5860 5860 5860 5861 5861 5861 5861 5861 5861 5862 5862 5863 5864 5864 5865 5866 5867 5867 5868 5869 5870 5872 5871 5869 5872 5874 5874 5875 5876 5878 5879 5880 5881 5882 5883 5884 5885 5886 5888 5889 5889 5890 5891 5892 5894 5895 5896 5898 5900 5900 5901 5902 5903 5903 5903 5903 5903 5903 5902 5903 5905 5908 5906 5904 5905 5905 5905 5906 5907 5907 5908 5908 5908 5908 5909 5910 5911 5911
5860 5860 5859 5859 5858 5858 5858 5858 5858 5858 5858 5858 5858 5858 5858 5858 5858 5858 5859 5859 5859 5860 5861 5862 5863 5863 5864 5865 5866 5867 5868 5870 5868 5867 5871 5872 5872 5873 5874 5876 5877 5878 5879 5880 5881 5882 5883 5885 5886 5887 5888 5889 5890 5891 5892 5893 5895 5897 5898 5899 5900 5902 5903 5903 5903 5903 5904 5903 5902 5902 5905 5907 5906 5905 5907 5906 5905 5906 5907 5908 5909 5909 5909 5909 5910 5910 5911 5912
5858 5857 5857 5856 5856 5855 5855 5855 5855 5855 5855 5855 5855 5855 5855 5856 5856 5856 5856 5856 5857 5857 5858 5859 5860 5860 5861 5862 5863 5864 5866 5868 5866 5866 5869 5869 5869 5871 5872 5874 5875 5876 5877 5878 5879 5880 5882 5883 5884 5885 5887 5887 5889 5890 5891 5892 5894 5895 5897 5898 5900 5901 5902 5902 5903 5903 5904 5903 5902 5903 5904 5906 5906 5907 5908 5906 5905 5907 5908 5909 5909 5909 5910 5910 5910 5910 5911 5912
5856 5855 5854 5854 5853 5853 5853 5852 5852 5852 5852 5852 5853 5853 5853 5853 5853 5853 5854 5854 5854 5855 5855 5856 5857 5858 5859 5859 5861 5862 5864 5866 5864 5864 5866 5867 5868 5869 5870 5872 5872 5874 5875 5875 5877 5878 5880 5881 5882 5884 5885 5886 5887 5888 5889 5890 5892 5894 5895 5897 5899 5900 5901 5902 5902 5903 5904 5903 5903 5904 5903 5904 5906 5907 5908 5906 5906 5908 5909 5909 5910 5910 5910 5910 5910 5910 5911 5912
5853 5853 5852 5851 5851 5851 5850 5850 5850 5849 5849 5849 5850 5850 5850 5850 5850 5851 5851 5851 5852 5852 5853 5853 5854 5855 5856 5857 5858 5859 5862 5864 5861 5860 5864 5865 5866 5867 5868 5869 5870 5871 5872 5873 5875 5876 5878 5880 5881 5882 5883 5884 5885 5885 5886 5888 5890 5893 5894 5896 5898 5899 5900 5901 5901 5901 5902 5902 5903 5906 5904 5904 5906 5907 5907 5907 5908 5909 5909 5909 5909 5910 5910 5910 5910 5910 5911 5912
5850 5850 5849 5849 5848 5848 5848 5847 5847 5847 5847 5847 5847 5847 5847 5847 5847 5848 5848 5849 5849 5850 5850 5851 5852 5852 5853 5854 5855 5857 5859 5861 5858 5858 5862 5863 5863 5865 5866 5867 5868 5869 5870 5871 5873 5874 5876 5878 5879 5880 5881 5882 5882 5883 5884 5886 5889 5891 5893 5894 5896 5897 5899 5900 5900 5901 5901 5901 5903 5906 5905 5904 5905 5906 5906 5908 5909 5909 5909 5910 5909 5910 5910 5910 5910 5911 5911 5912
5847 5847 5846 5846 5845 5845 5845 5844 5844 5844 5844 5844 5844 5844 5844 5844 5845 5845 5845 5846 5846 5847 5847 5848 5849 5849 5851 5851 5853 5855 5856 5857 5856 5856 5859 5860 5861 5862 5863 5865 5866 5866 5868 5869 5870 5872 5873 5875 5876 5877 5879 5880 5881 5882 5883 5885 5887 5889 5891 5892 5894 5896 5898 5899 5900 5901 5901 5900 5901 5904 5904 5903 5903 5904 5905 5907 5908 5909 5909 5910 5910 5909 5910 5911 5911 5911 5912 5912
5844 5844 5843 5843 5842 5842 5841 5841 5841 5841 5841 5841 5841 5841 5841 5841 5842 5842 5842 5843 5843 5844 5845 5845 5846 5847 5848 5849 5850 5853 5853 5853 5854 5854 5856 5858 5859 5860 5861 5862 5863 5864 5865 5867 5868 5869 5871 5872 5874 5875 5877 5878 5880 5881 5882 5884 5885 5887 5890 5891 5894 5896 5898 5899 5900 5900 5901 5900 5899 5901 5903 5903 5903 5904 5905 5906 5907 5909 5909 5909 5911 5910 5910 5911 5911 5911 5912 5912
5840 5840 5840 5839 5839 5838 5838 5838 5838 5837 5837 5837 5838 5838 5838 5838 5838 5839 5839 5840 5840 5841 5842 5842 5843 5844 5845 5846 5847 5849 5849 5850 5852 5852 5853 5855 5856 5857 5858 5859 5861 5862 5863 5864 5866 5867 5868 5870 5871 5873 5875 5876 5877 5879 5880 5882 5884 5886 5888 5890 5893 5895 5897 5898 5899 5900 5901 5900 5899 5899 5901 5903 5905 5905 5905 5906 5907 5909 5909 5909 5911 5911 5910 5910 5910 5911 5912 5912
5836 5836 5835 5835 5835 5835 5834 5834 5834 5834 5834 5834 5834 5834 5835 5835 5835 5836 5836 5837 5837 5838 5838 5839 5840 5841 5842 5843 5844 5846 5847 5848 5849 5850 5851 5852 5853 5854 5855 5857 5858 5859 5861 5862 5863 5864 5866 5867 5869 5871 5872 5874 5876 5877 5878 5880 5882 5884 5886 5888 5891 5894 5896 5897 5898 5899 5900 5900 5900 5899 5900 5901 5903 5905 5905 5905 5906 5907 5909 5910 5910 5911 5910 5909 5910 5910 5911 5912
5832 5831 5831 5831 5830 5830 5830 5830 5830 5830 5830 5830 5831 5831 5831 5831 5832 5832 5833 5833 5834 5834 5835 5836 5837 5838 5839 5840 5841 5842 5844 5845 5846 5847 5848 5849 5850 5851 5852 5854 5855 5856 5858 5859 5860 5862 5863 5865 5867 5868 5870 5872 5874 5875 5877 5880 5882 5883 5885 5887 5890 5892 5895 5896 5897 5898 5899 5899 5900 5900 5900 5900 5901 5904 5905 5904 5905 5906 5908 5910 5910 5910 5910 5909 5909 5909 5910 5911
5828 5827 5826 5826 5826 5826 5826 5826 5826 5826 5826 5827 5827 5827 5827 5828 5828 5829 5829 5830 5830 5831 5832 5833 5833 5834 5836 5837 5837 5838 5840 5842 5843 5844 5845 5846 5847 5848 5850 5851 5852 5853 5855 5856 5858 5859 5860 5862 5864 5866 5868 5870 5871 5874 5877 5878 5880 5882 5885 5887 5889 5891 5893 5894 5895 5896 5897 5898 5899 5900 5900 5899 5900 5903 5904 5904 5904 5905 5907 5909 5909 5910 5910 5910 5910 5909 5910 5911
5823 5822 5821 5821 5821 5821 5821 5821 5821 5821 5822 5822 5823 5823 5823 5824 5824 5825 5825 5826 5826 5827 5828 5829 5830 5831 5832 5833 5834 5835 5836 5838 5839 5840 5842 5843 5844 5845 5847 5848 5850 5851 5852 5853 5855 5857 5858 5860 5862 5864 5865 5867 5869 5872 5874 5875 5878 5882 5884 5887 5888 5890 5892 5893 5893 5895 5896 5896 5897 5899 5899 5898 5899 5902 5903 5903 5904 5905 5907 5908 5909 5910 5910 5910 5910 5910 5910 5910
5819 5818 5817 5816 5815 5815 5815 5815 5816 5816 5817 5817 5818 5818 5819 5819 5820 5821 5821 5822 5822 5823 5824 5825 5827 5827 5828 5830 5830 5831 5832 5834 5835 5837 5838 5839 5840 5842 5844 5845 5847 5848 5849 5850 5851 5854 5856 5857 5858 5861 5862 5864 5867 5869 5871 5875 5879 5881 5883 5884 5886 5887 5889 5891 5892 5893 5894 5895 5895 5897 5898 5897 5898 5899 5901 5903 5904 5905 5905 5908 5909 5909 5910 5910 5911 5910 5910 5910
5814 5813 5812 5811 5811 5810 5810 5810 5810 5811 5811 5812 5812 5813 5814 5814 5816 5817 5817 5817 5818 5818 5820 5822 5823 5823 5824 5826 5827 5827 5828 5829 5831 5833 5834 5836 5837 5839 5840 5842 5843 5844 5845 5847 5849 5851 5852 5854 5855 5857 5859 5862 5865 5867 5871 5875 5877 5877 5879 5881 5883 5885 5887 5889 5891 5892 5892 5894 5894 5895 5896 5897 5896 5898 5900 5902 5903 5904 5905 5907 5909 5909 5909 5910 5911 5911 5910 5910
5810 5809 5808 5807 5806 5806 5805 5805 5805 5806 5806 5806 5807 5808 5808 5809 5811 5812 5812 5812 5813 5813 5815 5817 5818 5818 5819 5823 5824 5823 5824 5826 5827 5829 5830 5831 5833 5834 5836 5838 5839 5841 5842 5844 5846 5848 5849 5850 5852 5854 5858 5862 5864 5866 5870 5872 5872 5873 5875 5878 5880 5882 5884 5887 5890 5891 5891 5893 5893 5894 5895 5896 5895 5896 5898 5899 5900 5903 5904 5907 5908 5908 5909 5910 5911 5912 5911 5910
5805 5805 5803 5803 5802 5801 5801 5801 5801 5801 5801 5802 5802 5802 5803 5803 5805 5806 5806 5807 5808 5809 5810 5812 5813 5813 5814 5818 5820 5819 5820 5821 5823 5825 5826 5827 5829 5831 5832 5834 5835 5837 5839 5841 5843 5844 5845 5847 5849 5853 5857 5861 5861 5863 5866 5867 5868 5869 5871 5874 5876 5878 5880 5884 5888 5890 5890 5892 5893 5894 5895 5894 5894 5896 5897 5897 5898 5901 5903 5906 5907 5907 5908 5909 5911 5913 5911 5910
5801 5800 5799 5798 5797 5797 5796 5796 5796 5796 5797 5797 5797 5798 5798 5798 5799 5801 5801 5801 5802 5804 5805 5806 5808 5809 5810 5813 5814 5814 5815 5817 5818 5821 5822 5823 5825 5827 5828 5830 5831 5833 5835 5837 5839 5840 5841 5843 5847 5852 5855 5857 5858 5859 5862 5863 5864 5866 5868 5871 5873 5876 5878 5882 5886 5888 5890 5892 5893 5894 5895 5893 5893 5895 5896 5896 5897 5899 5902 5904 5905 5906 5907 5909 5911 5912 5911 5911
5797 5796 5795 5794 5793 5792 5791 5791 5791 5791 5792 5792 5793 5793 5793 5794 5794 5795 5796 5796 5797 5798 5799 5801 5803 5804 5805 5806 5807 5809 5811 5812 5813 5816 5818 5819 5821 5822 5824 5826 5827 5829 5831 5833 5835 5836 5838 5841 5845 5850 5852 5853 5854 5857 5858 5860 5861 5863 5866 5868 5870 5873 5877 5880 5883 5887 5889 5892 5893 5893 5894 5892 5892 5893 5895 5896 5896 5897 5900 5902 5902 5904 5905 5908 5910 5911 5911 5911
5793 5792 5791 5790 5789 5788 5787 5787 5787 5786 5787 5787 5788 5788 5788 5789 5789 5790 5791 5791 5792 5793 5794 5795 5797 5799 5800 5801 5801 5804 5805 5805 5808 5813 5813 5813 5815 5818 5820 5821 5823 5825 5827 5829 5831 5832 5835 5839 5843 5847 5848 5849 5851 5853 5855 5856 5858 5860 5863 5866 5868 5871 5875 5878 5881 5886 5888 5890 5893 5894 5894 5892 5890 5891 5892 5895 5895 5895 5899 5901 5901 5902 5904 5907 5909 5910 5911 5911
5789 5788 5787 5786 5785 5785 5784 5783 5783 5783 5782 5783 5783 5784 5784 5784 5784 5785 5786 5787 5788 5789 5789 5791 5792 5794 5795 5795 5797 5798 5799 5799 5803 5808 5808 5808 5810 5814 5816 5817 5819 5820 5822 5825 5827 5829 5832 5836 5839 5842 5843 5844 5847 5850 5852 5853 5855 5858 5860 5864 5867 5869 5873 5876 5878 5882 5885 5888 5892 5894 5894 5892 5889 5888 5890 5893 5894 5893 5897 5900 5900 5902 5903 5905 5908 5909 5910 5911
5785 5784 5783 5782 5781 5781 5780 5780 5779 5779 5779 5779 5780 5780 5780 5781 5781 5781 5782 5783 5784 5785 5786 5787 5788 5789 5790 5791 5793 5793 5794 5796 5798 5801 5803 5804 5806 5808 5810 5812 5814 5816 5818 5820 5822 5824 5828 5831 5835 5837 5839 5840 5843 5846 5848 5850 5853 5856 5858 5861 5865 5867 5871 5873 5875 5877 5879 5882 5888 5892 5892 5891 5889 5888 5889 5891 5892 5892 5895 5897 5899 5901 5902 5904 5907 5908 5909 5910
5781 5780 5780 5779 5778 5777 5777 5776 5776 5776 5776 5777 5777 5777 5777 5777 5778 5778 5779 5780 5781 5782 5782 5784 5785 5786 5787 5788 5788 5789 5791 5792 5792 5795 5798 5799 5801 5802 5804 5807 5809 5811 5813 5815 5817 5820 5823 5827 5830 5833 5835 5837 5839 5842 5845 5847 5849 5852 5856 5859 5862 5865 5868 5870 5871 5873 5874 5878 5882 5887 5890 5890 5888 5887 5888 5890 5890 5891 5893 5895 5898 5899 5900 5903 5905 5907 5908 5910
5778 5777 5776 5776 5775 5774 5774 5773 5773 5773 5774 5774 5774 5775 5775 5775 5775 5775 5776 5777 5778 5779 5780 5781 5782 5782 5783 5784 5785 5786 5788 5788 5788 5791 5794 5794 5796 5798 5799 5800 5804 5806 5808 5809 5812 5816 5819 5823 5826 5828 5830 5833 5835 5839 5842 5844 5845 5849 5854 5856 5858 5861 5865 5869 5870 5870 5871 5874 5876 5880 5884 5887 5887 5885 5886 5888 5888 5888 5890 5893 5896 5897 5899 5902 5905 5906 5908 5909
5775 5774 5773 5772 5772 5772 5771 5771 5771 5771 5771 5772 5772 5772 5772 5772 5772 5773 5773 5774 5775 5776 5777 5778 5778 5779 5780 5780 5782 5783 5784 5784 5785 5788 5790 5790 5791 5793 5794 5795 5798 5800 5802 5804 5806 5810 5814 5818 5822 5823 5825 5828 5832 5836 5839 5841 5842 5847 5851 5853 5855 5858 5861 5865 5868 5869 5870 5870 5871 5875 5878 5882 5885 5884 5883 5884 5885 5885 5887 5891 5895 5896 5898 5901 5904 5905 5906 5908
5773 5771 5770 5769 5769 5769 5769 5768 5769 5769 5769 5769 5769 5769 5769 5770 5770 5770 5771 5771 5772 5772 5774 5775 5775 5776 5777 5778 5779 5780 5780 5781 5782 5785 5787 5787 5787 5788 5790 5791 5793 5795 5796 5798 5801 5805 5809 5811 5814 5816 5820 5825 5829 5832 5835 5837 5839 5843 5847 5849 5852 5854 5855 5858 5861 5865 5866 5865 5868 5873 5874 5876 5881 5883 5882 5880 5880 5881 5884 5890 5894 5895 5897 5899 5902 5903 5905 5906
5770 5769 5768 5767 5766 5767 5767 5766 5766 5767 5766 5767 5767 5767 5767 5767 5768 5768 5769 5769 5770 5770 5771 5772 5773 5775 5774 5775 5777 5777 5777 5779 5779 5781 5783 5784 5784 5785 5786 5787 5788 5790 5791 5793 5798 5802 5805 5807 5809 5812 5815 5820 5825 5827 5830 5833 5836 5839 5842 5846 5849 5850 5850 5852 5855 5859 5859 5860 5866 5871 5871 5872 5875 5879 5880 5879 5877 5878 5882 5887 5891 5894 5896 5898 5900 5902 5903 5905
5768 5767 5766 5765 5764 5764 5764 5764 5764 5764 5764 5764 5764 5764 5764 5765 5765 5766 5767 5767 5768 5768 5768 5769 5771 5773 5772 5772 5774 5775 5775 5776 5777 5778 5779 5781 5782 5782 5783 5783 5782 5784 5787 5790 5794 5797 5801 5804 5808 5810 5812 5816 5819 5822 5825 5829 5831 5834 5838 5842 5845 5847 5848 5848 5849 5853 5853 5855 5864 5869 5869 5869 5870 5872 5876 5878 5878 5877 5878 5882 5887 5891 5894 5897 5899 5901 5903 5904
5766 5765 5764 5763 5762 5762 5762 5762 5761 5761 5762 5761 5761 5762 5762 5762 5763 5763 5764 5765 5765 5765 5766 5767 5768 5769 5770 5770 5772 5773 5773 5774 5775 5776 5777 5779 5780 5779 5778 5777 5777 5782 5785 5786 5788 5790 5794 5799 5803 5807 5810 5812 5816 5819 5821 5823 5826 5830 5835 5838 5840 5843 5844 5843 5844 5848 5851 5855 5863 5868 5867 5864 5865 5867 5872 5876 5878 5878 5877 5878 5882 5888 5892 5896 5898 5900 5901 5903
5764 5763 5762 5761 5760 5760 5760 5759 5759 5759 5759 5759 5759 5759 5759 5759 5760 5760 5760 5761 5762 5763 5765 5765 5766 5767 5768 5768 5769 5770 5771 5772 5773 5774 5775 5776 5777 5775 5772 5772 5776 5780 5782 5782 5784 5786 5790 5794 5799 5803 5806 5808 5813 5817 5817 5818 5823 5827 5830 5832 5835 5838 5839 5839 5840 5843 5848 5853 5860 5866 5864 5860 5861 5866 5871 5875 5876 5878 5879 5878 5879 5884 5889 5893 5896 5897 5899 5901
5762 5761 5760 5759 5758 5757 5757 5757 5757 5756 5756 5756 5756 5757 5756 5757 5757 5757 5756 5757 5759 5760 5762 5763 5765 5765 5765 5766 5766 5767 5769 5769 5770 5772 5773 5775 5775 5772 5769 5772 5776 5778 5779 5781 5783 5784 5787 5791 5794 5797 5800 5803 5809 5813 5815 5816 5820 5822 5824 5825 5829 5833 5836 5837 5838 5840 5845 5850 5857 5862 5859 5857 5860 5865 5873 5877 5875 5875 5878 5878 5878 5880 5884 5889 5892 5894 5896 5898
5760 5758 5757 5757 5756 5755 5755 5754 5754 5754 5754 5754 5754 5754 5753 5754 5754 5753 5754 5755 5756 5758 5760 5761 5762 5763 5763 5764 5764 5765 5766 5766 5767 5769 5772 5773 5772 5769 5769 5773 5775 5776 5777 5780 5781 5782 5784 5787 5789 5789 5792 5798 5804 5809 5811 5812 5815 5818 5820 5821 5826 5832 5835 5837 5838 5839 5843 5847 5851 5854 5853 5855 5860 5864 5871 5876 5874 5873 5875 5877 5877 5877 5881 5884 5887 5890 5893 5896
5758 5756 5755 5754 5753 5753 5752 5752 5752 5752 5752 5752 5752 5751 5751 5751 5751 5751 5751 5752 5754 5757 5759 5758 5759 5760 5761 5762 5761 5762 5763 5764 5764 5765 5768 5771 5768 5766 5768 5770 5771 5773 5775 5777 5778 5778 5781 5786 5786 5786 5790 5794 5798 5802 5805 5808 5811 5815 5817 5819 5825 5832 5835 5836 5836 5838 5840 5841 5844 5847 5849 5852 5857 5860 5866 5870 5872 5872 5872 5874 5876 5875 5878 5881 5883 5887 5891 5893
5756 5754 5753 5752 5751 5751 5750 5750 5750 5750 5749 5749 5749 5748 5748 5748 5748 5749 5750 5751 5752 5755 5756 5755 5756 5757 5758 5760 5759 5759 5760 5761 5761 5762 5764 5766 5765 5764 5766 5767 5768 5770 5772 5774 5774 5774 5779 5783 5784 5786 5788 5789 5791 5793 5797 5802 5808 5813 5816 5819 5824 5828 5830 5831 5832 5835 5837 5838 5840 5844 5847 5850 5852 5855 5861 5864 5867 5870 5870 5872 5873 5872 5874 5877 5880 5885 5889 5892
5754 5753 5751 5749 5749 5748 5748 5748 5748 5747 5747 5746 5746 5746 5746 5746 5746 5747 5749 5749 5749 5752 5753 5752 5752 5755 5757 5757 5756 5756 5757 5758 5758 5759 5760 5762 5762 5762 5763 5763 5764 5767 5770 5771 5771 5772 5776 5778 5781 5783 5784 5785 5788 5791 5795 5799 5804 5811 5815 5818 5821 5824 5826 5826 5827 5829 5833 5835 5838 5842 5846 5848 5849 5852 5857 5860 5862 5866 5868 5870 5869 5867 5869 5874 5878 5882 5886 5889
5751 5750 5749 5747 5746 5746 5746 5746 5745 5745 5744 5743 5744 5744 5743 5744 5745 5745 5746 5745 5747 5749 5749 5749 5750 5753 5754 5753 5752 5752 5753 5753 5754 5757 5758 5758 5759 5759 5759 5759 5761 5764 5766 5767 5768 5769 5771 5774 5778 5780 5780 5783 5787 5791 5795 5797 5799 5807 5813 5814 5816 5817 5819 5822 5824 5826 5830 5833 5836 5840 5843 5847 5849 5852 5855 5857 5858 5861 5865 5867 5866 5864 5867 5872 5875 5878 5881 5884
5748 5747 5746 5745 5744 5743 5743 5743 5742 5742 5742 5741 5741 5741 5742 5742 5742 5742 5743 5744 5745 5746 5747 5748 5749 5750 5751 5750 5749 5748 5749 5750 5752 5756 5756 5755 5755 5756 5756 5756 5757 5759 5761 5763 5764 5766 5767 5770 5775 5778 5779 5781 5784 5788 5791 5791 5791 5797 5804 5808 5811 5813 5814 5817 5819 5821 5826 5829 5833 5838 5841 5845 5850 5853 5854 5855 5855 5857 5860 5864 5866 5864 5865 5869 5872 5873 5876 5881
5745 5744 5743 5742 5742 5741 5741 5741 5740 5740 5739 5739 5739 5739 5739 5740 5740 5741 5742 5742 5743 5744 5745 5746 5746 5748 5749 5747 5746 5748 5748 5749 5752 5754 5753 5751 5752 5752 5752 5753 5753 5754 5757 5759 5761 5764 5765 5766 5770 5775 5776 5777 5780 5783 5785 5787 5788 5791 5795 5800 5805 5809 5812 5815 5816 5819 5823 5825 5829 5836 5840 5843 5849 5852 5853 5853 5852 5853 5856 5860 5863 5863 5862 5864 5867 5868 5872 5878
5743 5742 5742 5741 5740 5740 5739 5738 5738 5738 5737 5737 5737 5737 5737 5738 5738 5739 5740 5739 5740 5741 5741 5741 5742 5745 5745 5743 5744 5747 5747 5747 5749 5751 5750 5749 5748 5747 5747 5749 5751 5753 5755 5756 5758 5761 5762 5762 5764 5769 5771 5773 5777 5781 5784 5786 5787 5789 5794 5797 5798 5803 5808 5811 5813 5817 5820 5823 5827 5833 5839 5844 5847 5849 5850 5850 5850 5852 5854 5856 5860 5862 5860 5861 5863 5866 5870 5875
5742 5741 5741 5740 5739 5738 5737 5737 5736 5736 5735 5735 5735 5736 5736 5736 5735 5737 5737 5737 5738 5738 5738 5739 5740 5741 5740 5740 5742 5744 5744 5745 5747 5748 5747 5745 5744 5743 5743 5745 5748 5750 5753 5753 5754 5756 5757 5757 5759 5764 5768 5772 5775 5779 5782 5782 5782 5783 5787 5790 5793 5797 5800 5801 5804 5809 5814 5820 5825 5828 5835 5842 5845 5845 5846 5846 5848 5851 5852 5853 5858 5860 5859 5858 5860 5864 5867 5870
5741 5741 5740 5739 5738 5738 5737 5736 5735 5735 5735 5734 5734 5734 5735 5734 5734 5735 5735 5735 5736 5736 5736 5737 5738 5738 5738 5740 5740 5739 5741 5743 5743 5743 5744 5742 5740 5740 5740 5742 5743 5746 5748 5749 5749 5752 5752 5752 5755 5760 5764 5768 5772 5776 5776 5775 5774 5776 5780 5784 5787 5788 5788 5791 5799 5805 5808 5813 5819 5822 5830 5839 5842 5842 5841 5842 5844 5846 5848 5848 5850 5855 5855 5852 5852 5856 5860 5864
5740 5740 5740 5739 5738 5737 5737 5736 5736 5735 5735 5735 5734 5734 5734 5734 5734 5734 5734 5734 5734 5734 5735 5736 5736 5735 5736 5738 5737 5736 5738 5739 5738 5738 5739 5739 5737 5736 5738 5739 5739 5741 5744 5744 5744 5746 5746 5748 5751 5755 5757 5762 5767 5769 5767 5764 5766 5772 5778 5781 5781 5781 5781 5788 5797 5802 5803 5806 5812 5817 5825 5834 5838 5837 5836 5838 5839 5840 5841 5840 5841 5847 5849 5844 5843 5847 5852 5857
5741 5740 5740 5739 5738 5738 5737 5737 5736 5736 5736 5735 5735 5734 5734 5734 5734 5734 5734 5733 5733 5733 5734 5734 5734 5733 5734 5734 5734 5733 5734 5734 5734 5734 5735 5736 5735 5734 5735 5735 5735 5736 5738 5739 5740 5740 5740 5742 5746 5747 5750 5755 5760 5762 5761 5760 5761 5766 5771 5775 5776 5776 5779 5785 5791 5794 5797 5802 5808 5813 5819 5824 5827 5829 5831 5834 5836 5834 5834 5836 5838 5841 5842 5840 5839 5841 5846 5853
5742 5741 5740 5740 5739 5738 5737 5737 5737 5736 5736 5735 5735 5734 5734 5734 5733 5733 5733 5733 5733 5732 5732 5732 5731 5731 5732 5732 5731 5731 5731 5731 5731 5731 5731 5731 5731 5732 5733 5732 5730 5731 5732 5733 5734 5734 5734 5736 5738 5738 5741 5747 5751 5754 5756 5756 5755 5758 5764 5769 5772 5773 5776 5781 5784 5787 5792 5798 5802 5807 5810 5812 5815 5820 5824 5828 5831 5830 5831 5832 5833 5835 5837 5838 5838 5839 5843 5846
5742 5741 5740 5740 5739 5738 5738 5737 5737 5737 5736 5736 5735 5735 5734 5734 5733 5733 5733 5733 5732 5732 5731 5731 5730 5730 5730 5730 5729 5729 5729 5728 5728 5728 5728 5728 5727 5728 5729 5728 5726 5726 5727 5728 5728 5727 5727 5729 5729 5729 5732 5736 5741 5745 5748 5748 5748 5752 5757 5761 5765 5768 5773 5776 5778 5782 5788 5793 5797 5800 5802 5804 5807 5810 5816 5821 5825 5827 5829 5828 5828 5830 5833 5835 5835 5837 5841 5843
5742 5741 5740 5740 5739 5739 5738 5738 5737 5737 5737 5736 5735 5735 5734 5734 5733 5733 5733 5732 5732 5731 5731 5730 5729 5729 5728 5728 5727 5727 5727 5726 5725 5725 5725 5724 5723 5723 5723 5723 5722 5721 5721 5722 5723 5722 5722 5722 5722 5721 5722 5725 5729 5734 5738 5741 5743 5746 5748 5752 5758 5763 5767 5770 5774 5778 5784 5791 5796 5798 5798 5799 5800 5801 5807 5813 5817 5821 5825 5825 5826 5829 5832 5833 5834 5837 5839 5842
5742 5741 5741 5740 5739 5739 5738 5738 5737 5737 5737 5736 5736 5735 5734 5733 5733 5732 5732 5731 5731 5730 5729 5729 5728 5728 5727 5726 5726 5725 5724 5724 5723 5722 5721 5720 5720 5719 5719 5719 5718 5717 5716 5716 5717 5717 5717 5716 5715 5714 5714 5716 5720 5724 5729 5735 5738 5740 5743 5749 5756 5760 5763 5768 5773 5776 5781 5789 5792 5793 5794 5794 5793 5794 5798 5804 5809 5813 5818 5821 5824 5828 5832 5833 5835 5836 5837 5840
5742 5741 5740 5740 5739 5739 5738 5738 5738 5737 5737 5737 5736 5735 5734 5733 5732 5732 5731 5730 5729 5729 5728 5727 5727 5726 5725 5724 5723 5722 5722 5721 5720 5718 5717 5717 5716 5715 5715 5714 5714 5713 5712 5712 5712 5712 5712 5711 5710 5708 5707 5709 5713 5716 5720 5725 5728 5732 5740 5749 5755 5758 5759 5764 5769 5774 5779 5783 5785 5787 5789 5787 5787 5788 5790 5794 5801 5807 5812 5817 5821 5825 5828 5831 5833 5834 5835 5836
5742 5741 5740 5739 5739 5738 5738 5738 5737 5737 5737 5736 5735 5734 5733 5732 5731 5731 5730 5729 5729 5728 5727 5726 5725 5724 5723 5722 5721 5720 5719 5718 5717 5715 5714 5713 5712 5711 5711 5710 5710 5710 5709 5708 5708 5707 5707 5706 5705 5703 5702 5705 5708 5709 5711 5714 5716 5723 5736 5746 5751 5752 5751 5754 5762 5770 5776 5780 5782 5782 5778 5774 5776 5780 5782 5787 5795 5800 5805 5810 5815 5819 5822 5827 5830 5832 5834 5834